Regional Weather Roundup
Issued by NWS

Home | Current Version | Previous Version | Graphics & Text | Print | Product List | Glossary On
Versions: 1 2 3 4 5 6 7 8 9 10 11 12 13 14 15 16 17 18 19 20 21 22 23 24 25 26 27 28 29 30 31 32 33 34 35 36 37 38 39 40 41 42 43 44 45 46 47 48 49 50
000
ASUS43 KLSX 171907
RWRMO

WEATHER SUMMARY FOR MISSOURI
NATIONAL WEATHER SERVICE SPRINGFIELD MO
200 PM CDT THU APR 17 2014

NOTE: "FAIR" INDICATES FEW OR NO CLOUDS BELOW 12,000 FEET WITH NO
       SIGNIFICANT WEATHER AND/OR OBSTRUCTIONS TO VISIBILITY.
       CURRENT SKY AND/OR WEATHER CONDITIONS ARE NOT AVAILABLE FOR
       CHILLICOTHE AND FARMINGTON.

MOZ001>031-035>038-043-044-053-054-172000-
...NORTHERN AND WESTERN MISSOURI...

CITY           SKY/WX    TMP DP  RH WIND       PRES   REMARKS
KANSAS CTY INT CLOUDY    45  31  58 N6        30.30S
KANSAS C DTWN  CLOUDY    44  31  60 VRB5      30.30S
LEE`S SUMMIT   CLOUDY    43  31  62 N5        30.30S
ST JOSEPH      PTSUNNY   47  30  51 VRB3      30.30F
CHILLICOTHE      N/A     48  32  53 N8        30.29F
KIRKSVILLE     CLOUDY    49  33  54 NE9       30.27F

$$
MOZ066>068-077>081-088>096-101>105-172000-
...SOUTHWEST MISSOURI...

CITY           SKY/WX    TMP DP  RH WIND       PRES   REMARKS
SPRINGFIELD    PTSUNNY   63  37  38 CALM      30.22S
JOPLIN         CLOUDY    58  38  47 N7        30.24F

$$
MOZ032>034-039>042-045>050-055>058-069>072-172000-
...CENTRAL MISSOURI...

CITY           SKY/WX    TMP DP  RH WIND       PRES   REMARKS
COLUMBIA       PTSUNNY   57  42  57 VRB7      30.25F
JEFFERSON CITY PTSUNNY   56  37  49 W6        30.25F
ROLLA          MOSUNNY   60  37  42 N5        30.21F
SEDALIA        CLOUDY    47  36  65 NW7       30.29F
WHITEMAN AFB   CLOUDY    44  33  64 VRB5      30.29S
OSAGE BEACH    MOSUNNY   59  34  38 N6        30.25F

$$
MOZ051-052-059>065-172000-
...EAST CENTRAL MISSOURI...

CITY           SKY/WX    TMP DP  RH WIND       PRES   REMARKS
ST LOUIS INTL  CLOUDY    65  37  35 VRB6      30.24F
SPIRIT OF STL  CLOUDY    63  36  36 NW3       30.24F
ST CHARLES     CLOUDY    62  37  39 W7        30.24F

$$
MOZ072>076-082>087-097>100-106>115-172000-
...SOUTH CENTRAL AND SOUTHEAST MISSOURI...

CITY           SKY/WX    TMP DP  RH WIND       PRES   REMARKS
CAPE GIRARDEAU SUNNY     66  43  43 S13       30.25F
FARMINGTON     PTSUNNY   64  32  29 CALM      30.24F
POPLAR BLUFF   SUNNY     65  37  35 S7        30.23F
WEST PLAINS    PTSUNNY   64  33  31 E8        30.22F

$$



USA.gov is the U.S. government's official web portal to all federal, state and local government web resources and services.